Location: Seven Kings
(51.5667°N, 0.1000°E)
Time: 13:44:08
(UTC+00:00)

Daily predictions for brighter satellites

Satellite Brightness Start Highest point End
(mag) Time Altitude Azimuth Time Altitude Azimuth Time Altitude Azimuth
USA 308 2.9 17:05:16 10° WNW 17:09:36 80° NNE 17:13:53 10° ESE
Envisat 3.3 17:04:55 10° S 17:10:00 75° WSW 17:15:07 10° NNW
Cosmos 1486 Rocket 4.4 17:05:33 10° NNW 17:10:41 44° ENE 17:15:45 10° SE
Cosmos 1300 3.2 17:08:02 10° SSE 17:11:33 37° E 17:15:07 10° NNE
CZ-4B R/B 2.2 17:09:54 10° NE 17:12:43 27° E 17:15:27 10° SSE
Cosmos 1825 Rocket 3.6 17:08:35 10° N 17:13:05 84° ENE 17:17:30 10° SSE
Cosmos 1400 Rocket 3.8 17:09:50 10° SSE 17:13:16 26° E 17:16:42 10° NE
Cosmos 1825 4.0 17:12:05 10° NE 17:13:49 13° ENE 17:15:33 10° E
Cosmos 1697 Rocket 4.2 17:11:23 10° SE 17:14:42 16° E 17:18:01 10° ENE
ERS-2 2.7 17:13:10 10° NNE 17:16:34 36° E 17:19:58 10° SSE
Helios 1A Rocket 3.9 17:17:02 10° ESE 17:20:28 26° ENE 17:23:55 10° N
Meteor 2-21 Rocket 4.4 17:14:27 10° N 17:20:41 78° ENE 17:26:49 10° SSE
BREEZE-M TANK 4.3 17:09:22 10° WSW 17:20:43 49° S 17:24:30 10° ESE
YAOGAN 1 3.8 17:19:36 10° ESE 17:22:56 22° ENE 17:26:17 10° N
Cosmos 1340 2.9 17:21:42 10° N 17:25:22 46° ENE 17:29:02 10° SSE
NOAA 11 4.2 17:22:22 10° SSE 17:27:46 69° ENE 17:33:10 10° N
Cosmos 44 3.2 17:23:22 10° SSW 17:27:51 64° SE 17:32:40 10° NE
CZ-2D R/B 4.0 17:25:05 10° SE 17:28:24 30° ENE 17:31:45 10° N
Okean O Rocket 1.9 17:25:16 10° S 17:29:36 71° WSW 17:33:58 10° NNW
Cosmos 2228 2.9 17:25:36 10° S 17:29:51 79° E 17:34:10 10° NNE
Cosmos 1726 Rocket 3.6 17:26:25 10° S 17:30:43 62° E 17:35:04 10° NNE
CZ-4 R/B 2.3 17:28:03 10° ESE 17:31:16 25° ENE 17:34:29 10° N
Cosmos 1346 Rocket 3.5 17:29:29 10° N 17:33:06 31° ENE 17:36:41 10° SE
SL-4 R/B 1.6 17:29:42 10° W 17:33:13 89° SW 17:36:33 13° E
Cosmos 2058 3.7 17:30:16 10° N 17:33:54 30° ENE 17:37:32 10° SE
Aureole 3 3.2 17:33:37 10° SSE 17:36:23 34° E 17:39:10 10° NNE
Cosmos 2297 Rocket 2.3 17:31:06 10° NNW 17:36:49 89° WSW 17:42:29 10° SSE
CORIOLIS 4.4 17:31:32 10° S 17:36:53 75° WSW 17:42:17 10° NNW
Cosmos 2369 Rocket 4.1 17:32:25 10° W 17:37:04 25° NW 17:41:45 10° NNE
Cosmos 1980 Rocket 3.7 17:35:51 10° SE 17:38:26 13° E 17:39:22 13° E
In-Cosmos 22 Rocket 4.1 17:33:20 10° N 17:38:40 63° ENE 17:44:05 10° SSE
CZ-2C R/B 3.7 17:39:48 10° SE 17:45:05 40° ENE 17:50:13 10° N
Cosmos 1315 Rocket 4.0 17:44:00 10° SE 17:47:06 22° E 17:50:14 10° NE
Cosmos 1606 Rocket 3.8 17:42:48 10° SSW 17:47:11 76° WNW 17:51:39 10° N
Cosmos 1553 Rocket 4.1 17:45:03 10° SSE 17:51:09 52° E 17:57:10 10° NNE
BREEZE-M R/B 3.4 17:50:02 10° W 17:53:33 71° S 17:59:00 15° ESE
USA 305 3.1 17:50:06 10° WNW 17:54:24 70° SSW 17:58:11 13° SE
SKYMED 2 3.8 17:50:58 10° NNE 17:55:12 47° E 17:59:23 10° S
Meteor 2-10 Rocket 3.9 17:52:04 10° SSE 17:56:54 39° E 18:01:36 10° NNE
Cosmos 1455 3.0 17:55:40 10° SSE 17:58:55 28° E 18:02:13 10° NNE
Cosmos 292 Rocket 4.0 17:54:32 10° SSW 17:59:20 74° WNW 18:04:12 10° NNE
NOSS 3-4 (A) 4.0 17:53:22 10° NW 17:59:56 52° NNE 18:05:39 17° ESE
NOSS 3-4 (C) 4.0 17:53:29 10° NW 18:00:02 52° NNE 18:05:43 17° ESE
USA 306 3.2 17:56:37 10° WNW 18:00:53 65° SSW 18:04:25 14° SE
SeaSat 1 3.3 18:00:38 20° E 18:03:11 31° NE 18:07:30 10° NNW
Cosmos 1943 Rocket 4.5 18:00:27 10° WNW 18:03:36 15° NNW 18:06:44 10° N
H-2A R/B 2.6 18:00:28 10° SE 18:05:31 41° ENE 18:10:37 10° N
FALCON 9 DEB 2.9 18:03:26 10° WSW 18:06:40 72° SSE 18:07:57 33° E
Okean-O 2.6 18:02:24 10° SSE 18:06:47 64° ENE 18:11:12 10° N
MOS 1 Rocket 4.2 18:03:31 10° NE 18:07:32 27° E 18:11:43 10° SSE
SL-08 R/B 4.4 18:01:40 10° N 18:07:53 86° E 18:14:00 10° S
FALCON 9 DEB 2.9 18:05:24 10° WSW 18:08:35 76° SSE 18:09:47 35° E
Cosmos 2219 4.1 18:04:43 10° NW 18:10:18 52° WSW 18:15:51 10° S
NOSS 3-3 (A) 4.3 18:06:30 10° S 18:11:58 41° ESE 18:16:10 19° ENE
NOSS 3-3 (C) 4.3 18:06:38 10° S 18:12:05 41° ESE 18:16:14 19° ENE
Aureole 3 Rocket 3.5 18:08:07 10° S 18:12:28 88° W 18:18:41 10° N
ATLAS 5 CENTAUR R/B 3.6 18:10:32 10° WNW 18:14:13 22° N 18:17:34 13° NE
Cosmos 1745 Rocket 3.9 18:08:03 10° N 18:14:21 73° ENE 18:20:42 10° SSE
USA 215 3.5 18:10:10 20° ENE 18:14:41 57° N 18:21:04 10° WNW
Cosmos 1408 2.4 18:14:00 10° N 18:17:40 75° E 18:21:20 10° SSE
Cosmos 2082 3.7 18:11:54 10° NNW 18:17:41 89° ENE 18:23:26 10° SSE
Lacrosse 5 2.4 18:12:47 10° WNW 18:17:42 47° N 18:20:11 26° ENE
Cosmos 44 Rocket 4.2 18:15:35 10° S 18:19:36 27° ESE 18:19:57 27° ESE
GEOS 3 Rocket 3.8 18:17:20 22° ESE 18:20:47 61° NE 18:26:08 10° NW
ARGOS 3.5 18:17:21 16° SE 18:21:23 42° ENE 18:26:29 10° N
ATLAS 2AS CENTAUR R/B 3.1 18:14:29 10° NW 18:22:02 55° NNE 18:26:16 25° E
Cosmos 2278 Rocket 4.5 18:21:05 10° N 18:22:10 10° N 18:23:15 10° NNE
HJ-1C 4.2 18:23:13 33° NE 18:23:13 33° NE 18:25:43 10° N
Cosmos 968 Rocket 4.0 18:17:49 10° NNW 18:22:58 60° WSW 18:28:03 10° S
ERBS 3.2 18:20:01 10° WNW 18:23:08 35° N 18:23:42 32° NE
Cosmos 1386 Rocket 4.5 18:16:42 10° N 18:23:10 79° E 18:29:30 10° SSE
FALCON 9 DEB 2.8 18:20:05 10° WSW 18:23:20 85° SSE 18:24:00 53° E
Cosmos 1689 Rocket 1.9 18:21:51 16° NNE 18:24:02 88° WNW 18:26:55 10° SSW
Cosmos 1656 3.6 18:18:47 10° SSW 18:24:22 85° ESE 18:30:05 10° NNE
Cosmos 2058 Rocket 3.6 18:20:46 10° SSW 18:25:13 63° WNW 18:29:44 10° N
SL-08 RB Rocket 4.5 18:26:12 30° ENE 18:26:12 30° ENE 18:30:02 10° N
Cosmos 1844 Rocket 4.3 18:26:56 10° NNW 18:30:45 18° NNE 18:31:40 17° NE
Cosmos 1076 Rocket 3.3 18:27:45 10° N 18:32:02 80° E 18:36:18 10° SSE
FALCON 9 DEB 3.2 18:28:54 10° WNW 18:32:19 70° SSW 18:32:58 52° SE
FALCON 9 DEB 2.8 18:29:38 10° WSW 18:32:51 86° NNW 18:33:07 72° ENE
Cosmos 1892 3.7 18:30:30 10° NNW 18:34:16 49° W 18:38:01 10° S
SJ 16-02 3.3 18:31:59 10° N 18:33:44 15° NNE 18:33:44 15° NNE
Cosmos 2369 3.8 18:30:11 10° S 18:35:42 53° ESE 18:39:11 22° NE
Cosmos 1777 Rocket 4.2 18:32:02 10° NNW 18:37:06 48° ENE 18:38:35 38° ESE
Cosmos 1939 Rocket 4.2 18:34:10 10° SSW 18:37:53 39° W 18:41:35 10° NNW
Geosat FO 4.5 18:40:29 63° ENE 18:40:39 64° NE 18:44:05 10° NNW
Cosmos 2227 Rocket 3.6 18:35:56 10° NW 18:41:09 39° WSW 18:46:21 10° S
CSL-04 Rocket 3.6 18:37:11 10° SSE 18:42:42 77° ENE 18:48:13 10° NNW
COSMO-SKYMED 1 3.0 18:38:59 10° N 18:43:18 62° WNW 18:47:35 10° SSW
Cosmos 2263 Rocket 2.4 18:38:03 10° NNW 18:43:36 50° NE 18:45:07 40° E
Cosmos 1709 Rocket 3.9 18:37:28 10° N 18:43:52 71° ENE 18:50:15 10° SSE
USA 307 4.0 18:40:30 10° WNW 18:44:30 39° SW 18:46:28 24° SSE
CZ-4B R/B 3.8 18:42:19 10° NNW 18:44:52 22° WNW 18:47:23 10° WSW
CZ-4C R/B 3.2 18:40:21 10° NW 18:46:47 48° NNE 18:49:38 34° E
USA 308 4.1 18:45:30 10° WNW 18:49:27 36° SW 18:51:16 25° S
Cosmos 1825 2.3 18:46:03 10° NNW 18:49:51 74° W 18:52:23 20° S
Helios 1A Rocket 4.3 18:51:38 10° SSW 18:55:30 38° W 18:59:22 10° NNW
Cosmos 1697 Rocket 2.6 18:52:12 10° SSW 18:57:48 84° ESE 19:01:26 23° NNE
Cosmos 2074 Rocket 4.4 18:52:24 10° N 18:58:06 40° ENE 18:58:06 40° ENE
YAOGAN 1 3.3 18:54:29 10° S 18:58:43 53° W 19:02:59 10° NNW
Cosmos 883 Rocket 4.3 18:54:53 10° S 19:00:59 75° E 19:07:08 10° NNE
Cosmos 1812 Rocket 3.6 19:01:24 10° SSW 19:05:48 78° W 19:10:12 10° N
CZ-4 R/B 2.9 19:02:37 10° SSW 19:06:11 35° W 19:09:45 10° NNW
S3M 4.3 19:01:55 10° SSW 19:08:00 67° WNW 19:14:13 10° N
DMSP B5D1-3 4.4 19:04:02 10° NNE 19:09:14 86° ESE 19:14:24 10° SSW
Cosmos 2315 Rocket 3.8 19:05:39 10° S 19:11:49 74° E 19:18:01 10° NNE
SL-4 R/B 2.9 19:09:12 10° W 19:12:08 39° SW 19:12:08 39° SW
Cosmos 2151 3.0 19:10:12 10° NNW 19:14:07 72° NW 19:14:07 72° NW
MetOp-A 4.4 19:21:44 54° NNE 19:21:44 54° NNE 19:26:13 10° N
Cosmos 1980 Rocket 2.0 19:15:50 10° SSW 19:21:13 71° SE 19:21:13 71° SE
Cosmos 1315 Rocket 4.1 19:19:40 10° SW 19:23:26 39° WNW 19:27:15 10° N
CZ-2C R/B 4.4 19:19:30 10° SSW 19:24:56 42° W 19:30:13 10° NNW
Geosat 4.3 19:33:07 57° SSW 19:33:07 57° SSW 19:37:06 10° SSW
Ariane Rocket 3.4 19:33:53 55° N 19:33:53 55° N 19:37:54 10° NNW
Cosmos 1455 4.2 19:31:11 10° SW 19:34:29 28° WNW 19:37:51 10° N
Cosmos 2227 4.2 19:32:43 10° NNW 19:38:21 75° WSW 19:38:36 74° SW
SeaSat 1 2.8 19:40:26 61° WSW 19:40:27 61° WSW 19:45:23 10° NW
H-2A R/B 3.5 19:39:57 10° SSW 19:44:59 38° W 19:50:05 10° NNW
MOS 1 Rocket 4.2 19:41:29 10° N 19:45:58 47° WNW 19:50:42 10° SW
NOSS 3-4 (A) 4.2 19:44:18 10° NW 19:51:06 59° SW 19:53:07 45° S
NOSS 3-4 (C) 4.2 19:44:25 10° NW 19:51:13 59° SW 19:53:11 46° S
IRS-1A Rocket 4.4 19:53:43 67° NW 19:53:43 67° NW 19:58:39 10° NNW
Cosmos 2278 4.0 19:49:33 10° SW 19:54:44 65° W 19:54:44 65° W
USA 215 3.1 19:57:31 86° NNE 19:57:31 86° NNE 20:04:04 10° WNW
ATLAS 5 CENTAUR R/B 3.7 19:56:04 10° NW 19:59:05 25° N 19:59:05 25° N
Lacrosse 5 2.9 19:56:00 10° WNW 19:59:23 43° WNW 19:59:23 43° WNW
Meteor 2-3 Rocket 4.2 19:56:02 10° NNW 20:01:39 56° W 20:01:56 56° WSW
ARGOS 4.5 19:58:53 22° SSW 20:01:43 37° W 20:06:45 10° NNW
NOSS 3-3 (A) 4.4 19:56:41 10° WSW 20:02:40 59° NW 20:03:38 53° N
NOSS 3-3 (C) 4.4 19:56:47 10° WSW 20:02:47 59° NW 20:03:42 54° N
COSMOS 2455 4.1 19:58:53 10° NNW 20:02:51 31° N 20:02:51 31° N
Cosmos 2278 Rocket 4.3 20:04:40 10° NNW 20:06:48 17° N 20:06:48 17° N
ATLAS 2AS CENTAUR R/B 3.2 20:05:51 10° NW 20:13:07 54° WSW 20:13:44 53° SW
SJ 16-02 3.8 20:09:40 10° NNW 20:10:43 17° NNW 20:10:43 17° NNW
Cosmos 1844 Rocket 4.1 20:10:20 10° NNW 20:13:19 31° N 20:13:19 31° N
Cosmos 2263 Rocket 3.5 20:22:15 10° NW 20:26:50 35° W 20:26:50 35° W
CZ-4C R/B 3.2 20:28:50 10° NW 20:34:50 63° W 20:34:50 63° W
Cosmos 1980 Rocket 4.4 21:01:09 10° W 21:03:03 19° W 21:03:03 19° W
